When you browse on this site, cookies collect data to enhance your experience and personalize the content and advertising you see.
Visit our Privacy Policy to learn more. By continuing to use the site, you agree to this use of cookies and data.
  • In Schweiz
  • Länderverzeichnis
  • Für 7 Tage
  • Wassertemperatur
  • Wetterkarte
  • Widgets
  • user-avatar
    Anmelden

    Stündliche Wetter Arbela

    Heute, 15 September, Sonntag

    Zeit Temperatur Niederschläge Wind Luftdruck Luftfeuchtigkeit
    00:00 +29°C° 0 mm 3 m/S 723 mmHg 18%
    01:00 +28°C° 0 mm 3 m/S 723 mmHg 20%
    02:00 +28°C° 0 mm 3 m/S 723 mmHg 22%
    03:00 +28°C° 0 mm 3 m/S 722 mmHg 23%
    04:00 +28°C° 0 mm 4 m/S 723 mmHg 24%
    05:00 +27°C° 0 mm 4 m/S 723 mmHg 24%
    06:00 +27°C° 0 mm 4 m/S 723 mmHg 25%
    07:00 +30°C° 0 mm 4 m/S 724 mmHg 21%
    08:00 +34°C° 0 mm 4 m/S 724 mmHg 17%
    09:00 +37°C° 0 mm 4 m/S 724 mmHg 14%
    10:00 +40°C° 0 mm 4 m/S 724 mmHg 12%
    11:00 +40°C° 0 mm 3 m/S 723 mmHg 11%
    12:00 +43°C° 0 mm 3 m/S 723 mmHg 10%
    13:00 +43°C° 0 mm 3 m/S 723 mmHg 10%
    14:00 +44°C° 0 mm 3 m/S 722 mmHg 9%
    15:00 +44°C° 0 mm 4 m/S 722 mmHg 9%
    16:00 +42°C° 0 mm 3 m/S 721 mmHg 10%
    17:00 +39°C° 0 mm 2 m/S 721 mmHg 12%
    18:00 +36°C° 0 mm 1 m/S 721 mmHg 13%
    19:00 +36°C° 0 mm 2 m/S 721 mmHg 13%
    20:00 +36°C° 0 mm 2 m/S 721 mmHg 14%
    21:00 +35°C° 0 mm 2 m/S 721 mmHg 14%
    22:00 +34°C° 0 mm 3 m/S 721 mmHg 15%
    23:00 +33°C° 0 mm 3 m/S 721 mmHg 16%

    Morgen, 16 September, Montag

    Zeit Temperatur Niederschläge Wind Luftdruck Luftfeuchtigkeit
    00:00 +33°C° 0 mm 3 m/S 721 mmHg 17%
    01:00 +31°C° 0 mm 3 m/S 721 mmHg 18%
    02:00 +30°C° 0 mm 3 m/S 721 mmHg 19%
    03:00 +29°C° 0 mm 3 m/S 721 mmHg 21%
    04:00 +28°C° 0 mm 3 m/S 722 mmHg 22%
    05:00 +27°C° 0 mm 3 m/S 722 mmHg 24%
    06:00 +26°C° 0 mm 3 m/S 722 mmHg 25%
    07:00 +29°C° 0 mm 2 m/S 723 mmHg 22%
    08:00 +32°C° 0 mm 2 m/S 724 mmHg 19%
    09:00 +36°C° 0 mm 2 m/S 724 mmHg 16%
    10:00 +38°C° 0 mm 2 m/S 724 mmHg 14%
    11:00 +39°C° 0 mm 3 m/S 724 mmHg 12%
    12:00 +40°C° 0 mm 3 m/S 724 mmHg 10%
    13:00 +42°C° 0 mm 3 m/S 724 mmHg 10%
    14:00 +42°C° 0 mm 4 m/S 724 mmHg 11%
    15:00 +43°C° 0 mm 5 m/S 723 mmHg 11%
    16:00 +41°C° 0 mm 4 m/S 723 mmHg 13%
    17:00 +38°C° 0 mm 3 m/S 723 mmHg 15%
    18:00 +36°C° 0 mm 2 m/S 723 mmHg 17%
    19:00 +34°C° 0 mm 2 m/S 723 mmHg 20%
    20:00 +32°C° 0 mm 2 m/S 724 mmHg 23%
    21:00 +30°C° 0 mm 2 m/S 724 mmHg 26%
    22:00 +30°C° 0 mm 2 m/S 724 mmHg 27%
    23:00 +29°C° 0 mm 3 m/S 724 mmHg 28%

    übermorgen, 17 September, Dienstag

    Zeit Temperatur Niederschläge Wind Luftdruck Luftfeuchtigkeit
    00:00 +29°C° 0 mm 3 m/S 724 mmHg 29%
    01:00 +28°C° 0 mm 3 m/S 723 mmHg 29%
    02:00 +28°C° 0 mm 2 m/S 723 mmHg 29%
    03:00 +28°C° 0 mm 2 m/S 723 mmHg 29%
    04:00 +28°C° 0 mm 2 m/S 723 mmHg 30%
    05:00 +27°C° 0 mm 1 m/S 723 mmHg 31%
    06:00 +26°C° 0 mm 1 m/S 723 mmHg 33%
    07:00 +29°C° 0 mm 1 m/S 724 mmHg 28%
    08:00 +32°C° 0 mm 1 m/S 724 mmHg 24%
    09:00 +35°C° 0 mm 1 m/S 724 mmHg 20%
    10:00 +37°C° 0 mm 2 m/S 724 mmHg 18%
    11:00 +38°C° 0 mm 3 m/S 724 mmHg 17%
    12:00 +41°C° 0 mm 4 m/S 724 mmHg 15%
    13:00 +41°C° 0 mm 5 m/S 724 mmHg 14%
    14:00 +41°C° 0 mm 5 m/S 723 mmHg 12%
    15:00 +42°C° 0 mm 6 m/S 723 mmHg 10%
    16:00 +40°C° 0 mm 5 m/S 723 mmHg 12%
    17:00 +37°C° 0 mm 4 m/S 723 mmHg 14%
    18:00 +35°C° 0 mm 3 m/S 723 mmHg 15%
    19:00 +33°C° 0 mm 3 m/S 723 mmHg 18%
    20:00 +31°C° 0 mm 3 m/S 723 mmHg 20%
    21:00 +29°C° 0 mm 3 m/S 724 mmHg 22%
    22:00 +28°C° 0 mm 3 m/S 724 mmHg 24%
    23:00 +27°C° 0 mm 2 m/S 724 mmHg 26%

    18 September, Mittwoch

    Zeit Temperatur Niederschläge Wind Luftdruck Luftfeuchtigkeit
    00:00 +26°C° 0 mm 2 m/S 724 mmHg 28%
    01:00 +26°C° 0 mm 1 m/S 724 mmHg 30%
    02:00 +25°C° 0 mm 1 m/S 724 mmHg 31%
    03:00 +24°C° 0 mm 1 m/S 724 mmHg 33%
    04:00 +24°C° 0 mm 1 m/S 724 mmHg 33%
    05:00 +23°C° 0 mm 1 m/S 724 mmHg 34%
    06:00 +23°C° 0 mm 1 m/S 724 mmHg 35%
    07:00 +26°C° 0 mm 1 m/S 724 mmHg 29%
    08:00 +29°C° 0 mm 1 m/S 725 mmHg 24%
    09:00 +33°C° 0 mm 1 m/S 726 mmHg 19%
    10:00 +35°C° 0 mm 2 m/S 725 mmHg 17%
    11:00 +37°C° 0 mm 3 m/S 725 mmHg 14%
    12:00 +38°C° 0 mm 4 m/S 725 mmHg 12%
    13:00 +40°C° 0 mm 4 m/S 725 mmHg 11%
    14:00 +40°C° 0 mm 4 m/S 724 mmHg 11%
    15:00 +41°C° 0 mm 4 m/S 724 mmHg 10%
    16:00 +38°C° 0 mm 4 m/S 723 mmHg 11%
    17:00 +36°C° 0 mm 3 m/S 723 mmHg 13%
    18:00 +34°C° 0 mm 3 m/S 723 mmHg 14%
    19:00 +31°C° 0 mm 2 m/S 724 mmHg 15%
    20:00 +30°C° 0 mm 2 m/S 724 mmHg 17%
    21:00 +28°C° 0 mm 2 m/S 724 mmHg 18%
    22:00 +27°C° 0 mm 1 m/S 724 mmHg 19%
    23:00 +26°C° 0 mm 1 m/S 724 mmHg 21%

    19 September, Donnerstag

    Zeit Temperatur Niederschläge Wind Luftdruck Luftfeuchtigkeit
    00:00 +25°C° 0 mm 1 m/S 724 mmHg 22%
    01:00 +25°C° 0 mm 1 m/S 724 mmHg 23%
    02:00 +24°C° 0 mm 1 m/S 723 mmHg 24%
    03:00 +24°C° 0 mm 1 m/S 723 mmHg 25%
    04:00 +24°C° 0 mm 1 m/S 723 mmHg 25%
    05:00 +23°C° 0 mm 1 m/S 723 mmHg 26%
    06:00 +23°C° 0 mm 1 m/S 723 mmHg 26%
    07:00 +27°C° 0 mm 1 m/S 724 mmHg 22%
    08:00 +30°C° 0 mm 1 m/S 724 mmHg 18%
    09:00 +34°C° 0 mm 1 m/S 725 mmHg 13%
    10:00 +37°C° 0 mm 2 m/S 724 mmHg 12%
    11:00 +38°C° 0 mm 3 m/S 724 mmHg 10%
    12:00 +41°C° 0 mm 4 m/S 724 mmHg 9%
    13:00 +41°C° 0 mm 4 m/S 724 mmHg 8%
    14:00 +42°C° 0 mm 4 m/S 723 mmHg 8%
    15:00 +42°C° 0 mm 5 m/S 723 mmHg 7%
    16:00 +40°C° 0 mm 4 m/S 723 mmHg 7%
    17:00 +36°C° 0 mm 3 m/S 722 mmHg 8%
    18:00 +34°C° 0 mm 2 m/S 722 mmHg 9%
    19:00 +31°C° 0 mm 2 m/S 722 mmHg 10%
    20:00 +30°C° 0 mm 2 m/S 723 mmHg 11%
    21:00 +28°C° 0 mm 2 m/S 723 mmHg 12%
    22:00 +28°C° 0 mm 2 m/S 723 mmHg 13%
    23:00 +27°C° 0 mm 1 m/S 722 mmHg 14%

    20 September, Freitag

    Zeit Temperatur Niederschläge Wind Luftdruck Luftfeuchtigkeit
    00:00 +26°C° 0 mm 1 m/S 722 mmHg 15%
    01:00 +26°C° 0 mm 1 m/S 722 mmHg 15%
    02:00 +25°C° 0 mm 1 m/S 722 mmHg 16%
    03:00 +25°C° 0 mm 1 m/S 721 mmHg 16%
    04:00 +25°C° 0 mm 1 m/S 721 mmHg 16%
    05:00 +25°C° 0 mm 1 m/S 721 mmHg 16%
    06:00 +24°C° 0 mm 1 m/S 721 mmHg 16%
    07:00 +28°C° 0 mm 1 m/S 722 mmHg 14%
    08:00 +31°C° 0 mm 1 m/S 722 mmHg 11%
    09:00 +35°C° 0 mm 1 m/S 722 mmHg 8%
    10:00 +38°C° 0 mm 2 m/S 722 mmHg 8%
    11:00 +40°C° 0 mm 3 m/S 722 mmHg 8%
    12:00 +42°C° 0 mm 4 m/S 722 mmHg 7%
    13:00 +43°C° 0 mm 4 m/S 722 mmHg 8%
    14:00 +43°C° 0 mm 4 m/S 721 mmHg 9%
    15:00 +44°C° 0 mm 4 m/S 721 mmHg 9%
    16:00 +41°C° 0 mm 4 m/S 721 mmHg 11%
    17:00 +38°C° 0 mm 3 m/S 721 mmHg 12%
    18:00 +36°C° 0 mm 2 m/S 721 mmHg 14%
    19:00 +34°C° 0 mm 2 m/S 721 mmHg 15%
    20:00 +32°C° 0 mm 1 m/S 721 mmHg 17%
    21:00 +30°C° 0 mm 1 m/S 721 mmHg 18%
    22:00 +29°C° 0 mm 1 m/S 721 mmHg 19%
    23:00 +28°C° 0 mm 1 m/S 721 mmHg 21%
    Mehr zeigen